Millinocket, ME

12:07 PM EST on December 04, 2016 (GMT -0500)
Millinocket Municipal

Weather History for KMLT - November, 2012

Change the Weather History Date:

Friday, November 23, 2012

  Actual Average Record
Temperature  
Mean Temperature 40 °F 32 °F  
Max Temperature 45 °F 39 °F 62 °F (1953)
Min Temperature 35 °F 25 °F -2 °F (1964)
Degree Days  
Heating Degree Days 25 33  
Month to date heating degree days 658 665  
Since 1 July heating degree days 1363 1599  
Cooling Degree Days 0 0  
Month to date cooling degree days 0 0  
Year to date cooling degree days 443 268  
Moisture  
Dew Point 37 °F    
Average Humidity 92    
Maximum Humidity 100    
Minimum Humidity 83    
Precipitation  
Precipitation 0.00 in 0.16 in 2.43 in (1924)
Month to date precipitation 1.12 3.28  
Year to date precipitation 35.53 38.00  
Sea Level Pressure  
Sea Level Pressure 29.91 in    
Wind  
Wind Speed 3 mph (SSE)    
Max Wind Speed 12 mph    
Max Gust Speed 20 mph    
Visibility 6 miles    
Events      
T = Trace of Precipitation, MM = Missing Value Source: NWS Daily Summary

Daily Weather History Graph

Daily Weather History Graph

Search for Another Location

Airport or City:

Trip Planner

Search our weather history database for the weather conditions in past years. The results will help you decide how hot, cold, wet, or windy it might be!

Date:

Astronomy

Nov. 23, 2012 Rise Set
Actual Time 6:45 AM EST 3:56 PM EST
Civil Twilight 6:12 AM EST 4:29 PM EST
Nautical Twilight 5:36 AM EST 5:06 PM EST
Astronomical Twilight 5:00 AM EST 5:41 PM EST
Moon 1:20 PM EST (11/23) 1:48 AM EST (11/23)
Length of Visible Light 10h 16m
Length of Day
9h 11m
Waxing Gibbous, 79% of the Moon is Illuminated
Nov 23
Waxing Gibbous
Nov 28
Full
Dec 6
Last Quarter
Dec 13
New
Dec 20
First Quarter

Hourly Weather History & Observations

Time (EST) Temp. Windchill Dew Point Humidity Pressure Visibility Wind Dir Wind Speed Gust Speed Precip Events Conditions
12:23 AM 35.6 °F 32.8 °F 33.8 °F 93% 30.05 in 6.0 mi East 3.5 mph - N/A   Scattered Clouds
12:32 AM 35.6 °F 32.8 °F 33.8 °F 93% 30.04 in 5.0 mi Variable 3.5 mph - N/A   Mostly Cloudy
12:53 AM 37.0 °F 34.5 °F 35.1 °F 93% 30.06 in 5.0 mi Variable 3.5 mph - N/A   Overcast
1:53 AM 37.0 °F - 35.1 °F 93% 30.06 in 6.0 mi Calm Calm - N/A   Scattered Clouds
2:34 AM 37.4 °F - 35.6 °F 93% 30.04 in 5.0 mi Calm Calm - N/A   Mostly Cloudy
2:53 AM 37.0 °F - 35.1 °F 93% 30.06 in 7.0 mi Calm Calm - N/A   Overcast
3:03 AM 37.4 °F - 35.6 °F 93% 30.02 in 7.0 mi Calm Calm - N/A   Overcast
3:53 AM 37.0 °F - 35.1 °F 93% 30.04 in 5.0 mi Calm Calm - N/A   Overcast
4:18 AM 37.4 °F - 35.6 °F 93% 30.01 in 5.0 mi Calm Calm - N/A   Overcast
4:40 AM 37.4 °F - 35.6 °F 93% 30.01 in 2.5 mi Calm Calm - N/A   Overcast
4:49 AM 37.4 °F 34.9 °F 35.6 °F 93% 30.00 in 3.0 mi South 3.5 mph - N/A   Overcast
4:53 AM 37.0 °F - 35.1 °F 93% 30.04 in 3.0 mi Calm Calm - N/A   Overcast
5:05 AM 37.4 °F - 35.6 °F 93% 30.00 in 2.0 mi Calm Calm - N/A   Overcast
5:20 AM 35.6 °F - 35.6 °F 100% 30.00 in 4.0 mi Calm Calm - N/A   Overcast
5:53 AM 37.0 °F 34.5 °F 35.1 °F 93% 30.02 in 5.0 mi SSE 3.5 mph - N/A   Overcast
6:09 AM 35.6 °F - 35.6 °F 100% 29.99 in 2.0 mi Calm Calm - N/A   Overcast
6:18 AM 35.6 °F - 35.6 °F 100% 29.99 in 1.5 mi Calm Calm - N/A   Overcast
6:28 AM 35.6 °F 32.8 °F 35.6 °F 100% 29.99 in 2.5 mi SSE 3.5 mph - N/A   Overcast
6:36 AM 35.6 °F - 35.6 °F 100% 29.99 in 4.0 mi Calm Calm - N/A   Overcast
6:53 AM 36.0 °F 33.3 °F 35.1 °F 97% 30.01 in 3.0 mi Variable 3.5 mph - N/A   Overcast
6:58 AM 35.6 °F - 35.6 °F 100% 29.99 in 1.8 mi Calm Calm - N/A   Overcast
7:07 AM 35.6 °F 32.8 °F 35.6 °F 100% 29.99 in 1.0 mi Variable 3.5 mph - N/A   Overcast
7:31 AM 35.6 °F 30.7 °F 35.6 °F 100% 29.98 in 1.5 mi Variable 5.8 mph - N/A   Overcast
7:41 AM 35.6 °F 30.7 °F 35.6 °F 100% 29.98 in 1.2 mi Variable 5.8 mph - N/A   Overcast
7:53 AM 36.0 °F 33.3 °F 35.1 °F 97% 30.01 in 1.2 mi Variable 3.5 mph - N/A   Overcast
8:00 AM 35.6 °F 32.8 °F 35.6 °F 100% 29.98 in 1.5 mi South 3.5 mph - N/A   Overcast
8:29 AM 37.4 °F - 35.6 °F 93% 29.97 in 2.5 mi Calm Calm - N/A   Overcast
8:36 AM 37.4 °F - 35.6 °F 93% 29.97 in 3.0 mi Calm Calm - N/A   Overcast
8:51 AM 37.4 °F - 35.6 °F 93% 29.97 in 2.0 mi Calm Calm - N/A   Overcast
8:53 AM 37.0 °F 33.3 °F 36.0 °F 96% 30.00 in 2.0 mi South 4.6 mph - N/A   Overcast
9:05 AM 37.4 °F 33.8 °F 35.6 °F 93% 29.97 in 4.0 mi Variable 4.6 mph - N/A   Overcast
9:53 AM 37.9 °F 32.1 °F 37.0 °F 97% 29.98 in 5.0 mi South 8.1 mph - N/A   Overcast
10:53 AM 39.9 °F 36.7 °F 37.9 °F 93% 29.95 in 7.0 mi Variable 4.6 mph - N/A   Overcast
11:18 AM 39.2 °F 37.0 °F 37.4 °F 93% 29.90 in 8.0 mi Variable 3.5 mph - N/A   Overcast
11:53 AM 41.0 °F 38.0 °F 37.9 °F 89% 29.90 in 9.0 mi Variable 4.6 mph - N/A   Overcast
12:11 PM 42.8 °F 39.3 °F 37.4 °F 81% 29.87 in 10.0 mi Variable 5.8 mph - N/A   Overcast
12:53 PM 43.0 °F 39.5 °F 39.0 °F 86% 29.88 in 10.0 mi SSE 5.8 mph - N/A   Overcast
1:53 PM 44.1 °F 41.5 °F 41.0 °F 89% 29.84 in 10.0 mi Variable 4.6 mph - N/A   Overcast
2:15 PM 44.6 °F 42.2 °F 41.0 °F 87% 29.80 in 10.0 mi SE 4.6 mph - N/A   Partly Cloudy
2:37 PM 44.6 °F - 41.0 °F 87% 29.79 in 9.0 mi Calm Calm - N/A   Partly Cloudy
2:53 PM 45.0 °F - 41.0 °F 86% 29.81 in 9.0 mi Calm Calm - N/A   Clear
3:53 PM 39.9 °F - 37.9 °F 93% 29.79 in 4.0 mi Calm Calm - N/A   Clear
4:53 PM 44.1 °F 40.8 °F 39.9 °F 85% 29.77 in 10.0 mi SSE 5.8 mph - N/A   Clear
5:53 PM 43.0 °F 40.3 °F 39.0 °F 86% 29.75 in 10.0 mi SSE 4.6 mph - N/A   Clear
6:53 PM 42.1 °F 39.2 °F 39.0 °F 89% 29.75 in 10.0 mi South 4.6 mph - N/A   Scattered Clouds
7:03 PM 42.8 °F 41.1 °F 39.2 °F 87% 29.73 in 10.0 mi Variable 3.5 mph - N/A   Mostly Cloudy
7:53 PM 44.1 °F 40.1 °F 39.9 °F 85% 29.75 in 10.0 mi Variable 6.9 mph - N/A   Overcast
8:53 PM 45.0 °F - 39.9 °F 82% 29.74 in 10.0 mi Calm Calm - N/A   Overcast
9:38 PM 44.6 °F 42.2 °F 39.2 °F 81% 29.69 in 10.0 mi Variable 4.6 mph - N/A   Overcast
9:53 PM 44.1 °F 42.5 °F 39.9 °F 85% 29.71 in 10.0 mi Variable 3.5 mph - N/A   Overcast
10:08 PM 44.6 °F 43.1 °F 39.2 °F 81% 29.68 in 10.0 mi Variable 3.5 mph - N/A   Overcast
10:17 PM 44.6 °F 42.2 °F 39.2 °F 81% 29.67 in 10.0 mi South 4.6 mph - N/A   Overcast
10:53 PM 44.1 °F 41.5 °F 39.9 °F 85% 29.69 in 10.0 mi South 4.6 mph - N/A   Overcast
11:53 PM 43.0 °F 41.3 °F 39.9 °F 89% 29.65 in 10.0 mi SSE 3.5 mph - N/A   Overcast